contact:dominique.lefevre@mio.osupytheas.fr, maurice.libes@osupytheas.fr, didier.mallarino@osupytheas.fr
Project:EMSO http://www.emso-fr.org/EMSO-France
Depth: 2436.0 m
Title:EMSO Ligure Ouest : Data MII capteur AQUADOPP
Date,Latitude,Longitude,X_East,Y_North,Z_Up,Amplitude_X,Amplitude_Y,Amplitude_Z,Batterie,SoundSpeed,Heading,Pitch,Roll,Pressure,TIS,Speed,Direction
, degrees North, degrees East, m.s-1, m.s-1,m.s-1, 1, 1, 1, Volt, m.s-1, degree, degree, degree, dbar, degree_C, m.s-1, degree
2020-01-20T00:04:03,42.805,6.029,0.042,-0.035,0.018,109.0,108.0,104.0,13.3,1505.2,327.4,-0.7,1.9,2470.295,13.3,0.054,129.8
2020-01-20T00:07:03,42.805,6.029,0.053,-0.029,-0.032,109.0,107.0,103.0,13.4,1505.3,326.4,-0.7,1.8,2470.247,13.31,0.06,118.7
2020-01-20T00:10:03,42.805,6.029,0.051,-0.025,-0.034,106.0,108.0,103.0,13.4,1505.3,325.0,-0.7,1.8,2470.281,13.31,0.056,116.1
2020-01-20T00:13:03,42.805,6.029,0.055,-0.012,0.008,106.0,107.0,103.0,13.4,1505.3,324.5,-0.7,1.8,2470.288,13.32,0.056,102.3
2020-01-20T00:16:03,42.805,6.029,0.054,-0.029,0.011,106.0,107.0,103.0,13.3,1505.3,322.9,-0.7,1.8,2470.285,13.32,0.061,118.2
2020-01-20T00:19:03,42.805,6.029,0.077,-0.032,-0.007,105.0,106.0,101.0,13.4,1505.3,328.7,-0.7,1.8,2470.29,13.32,0.083,112.6
2020-01-20T00:22:03,42.805,6.029,0.037,-0.018,-0.025,106.0,107.0,102.0,13.4,1505.3,326.4,-0.7,1.9,2470.237,13.32,0.041,115.9
2020-01-20T00:25:03,42.805,6.029,0.044,-0.019,-0.007,106.0,106.0,102.0,13.4,1505.3,327.3,-0.7,1.8,2470.264,13.32,0.047,113.4
2020-01-20T00:28:03,42.805,6.029,0.062,-0.019,-0.009,105.0,106.0,102.0,13.4,1505.3,325.6,-0.7,1.8,2470.252,13.32,0.064,107.0
2020-01-20T00:31:03,42.805,6.029,0.049,-0.025,-0.033,105.0,107.0,102.0,13.4,1505.3,327.7,-0.7,1.9,2470.289,13.32,0.055,117.0
2020-01-20T00:34:03,42.805,6.029,0.044,-0.015,-0.018,105.0,107.0,103.0,13.3,1505.3,324.2,-0.7,1.8,2470.294,13.32,0.046,108.8
2020-01-20T00:37:03,42.805,6.029,0.039,-0.021,-0.035,106.0,106.0,103.0,13.4,1505.3,324.1,-0.7,1.8,2470.3,13.32,0.044,118.3
2020-01-20T00:40:03,42.805,6.029,0.041,-0.024,-0.009,107.0,107.0,102.0,13.3,1505.3,327.7,-0.7,1.9,2470.249,13.32,0.047,120.3
2020-01-20T00:43:03,42.805,6.029,0.041,-0.024,-0.027,105.0,106.0,102.0,13.4,1505.3,326.9,-0.7,1.8,2470.286,13.32,0.047,120.3
2020-01-20T00:46:03,42.805,6.029,0.036,-0.046,-0.013,105.0,107.0,101.0,13.4,1505.3,327.0,-0.7,1.8,2470.259,13.32,0.058,142.0
2020-01-20T00:49:03,42.805,6.029,0.05,-0.005,-0.033,105.0,106.0,101.0,13.3,1505.3,325.9,-0.7,1.8,2470.277,13.32,0.05,95.7
2020-01-20T00:52:03,42.805,6.029,0.062,-0.02,-0.03,105.0,106.0,101.0,13.4,1505.3,322.8,-0.7,1.8,2470.254,13.32,0.065,107.9
2020-01-20T00:55:03,42.805,6.029,0.063,-0.016,-0.026,105.0,107.0,103.0,13.4,1505.3,328.2,-0.7,1.8,2470.258,13.32,0.064,104.2
2020-01-20T00:58:03,42.805,6.029,0.045,-0.014,-0.026,106.0,106.0,103.0,13.4,1505.3,326.9,-0.7,1.8,2470.278,13.32,0.047,107.3
2020-01-20T01:04:03,42.805,6.029,0.043,-0.006,-0.015,106.0,107.0,104.0,13.4,1505.2,325.1,-0.7,1.8,2470.345,13.3,0.043,97.9
2020-01-20T01:07:03,42.805,6.029,0.034,-0.011,-0.023,105.0,108.0,101.0,13.4,1505.3,325.2,-0.7,1.8,2470.268,13.31,0.035,107.9
2020-01-20T01:10:03,42.805,6.029,0.07,-0.02,-0.033,104.0,105.0,102.0,13.4,1505.3,324.7,-0.7,1.9,2470.321,13.31,0.072,105.9
2020-01-20T01:13:03,42.805,6.029,0.055,-0.028,-0.043,104.0,105.0,102.0,13.3,1505.3,323.5,-0.7,1.9,2470.262,13.32,0.061,117.0
2020-01-20T01:16:03,42.805,6.029,0.046,-0.035,-0.027,105.0,106.0,101.0,13.4,1505.3,326.7,-0.7,1.8,2470.308,13.32,0.057,127.3
2020-01-20T01:19:03,42.805,6.029,0.063,-0.017,-0.005,104.0,106.0,101.0,13.4,1505.3,327.9,-0.7,1.9,2470.345,13.32,0.065,105.1
2020-01-20T01:22:03,42.805,6.029,0.044,-0.016,-0.011,105.0,107.0,102.0,13.4,1505.3,323.3,-0.7,1.8,2470.294,13.32,0.046,110.0
2020-01-20T01:25:03,42.805,6.029,0.051,-0.031,-0.032,104.0,107.0,103.0,13.4,1505.3,325.4,-0.7,1.8,2470.283,13.32,0.059,121.3
2020-01-20T01:28:03,42.805,6.029,0.045,-0.031,-0.017,105.0,107.0,102.0,13.4,1505.3,325.9,-0.7,1.8,2470.305,13.32,0.054,124.6
2020-01-20T01:31:03,42.805,6.029,0.059,-0.02,-0.016,106.0,105.0,102.0,13.4,1505.3,323.0,-0.7,1.9,2470.305,13.32,0.062,108.7
2020-01-20T01:34:03,42.805,6.029,0.049,-0.018,0.0,105.0,107.0,102.0,13.4,1505.3,326.6,-0.7,1.8,2470.308,13.32,0.052,110.2
2020-01-20T01:37:03,42.805,6.029,0.057,-0.027,-0.027,105.0,107.0,101.0,13.4,1505.3,325.4,-0.7,1.8,2470.326,13.32,0.063,115.3
2020-01-20T01:40:03,42.805,6.029,0.057,-0.013,-0.005,104.0,106.0,102.0,13.4,1505.3,324.4,-0.7,1.8,2470.352,13.32,0.058,102.8
2020-01-20T01:43:03,42.805,6.029,0.033,-0.023,-0.036,106.0,107.0,101.0,13.3,1505.3,325.9,-0.7,1.9,2470.29,13.32,0.04,124.9
2020-01-20T01:46:03,42.805,6.029,0.073,-0.025,-0.022,105.0,106.0,102.0,13.3,1505.3,326.4,-0.7,1.8,2470.28,13.32,0.077,108.9
2020-01-20T01:49:03,42.805,6.029,0.055,-0.004,-0.005,105.0,106.0,102.0,13.4,1505.3,324.6,-0.7,1.8,2470.321,13.32,0.055,94.2
2020-01-20T01:52:03,42.805,6.029,0.057,-0.019,-0.017,106.0,106.0,102.0,13.4,1505.3,323.9,-0.7,1.8,2470.286,13.32,0.06,108.4
2020-01-20T01:55:03,42.805,6.029,0.05,-0.019,0.002,106.0,106.0,102.0,13.4,1505.3,326.8,-0.7,1.8,2470.316,13.32,0.053,110.8
2020-01-20T01:58:03,42.805,6.029,0.063,-0.022,-0.015,105.0,106.0,101.0,13.3,1505.3,327.1,-0.7,1.8,2470.327,13.32,0.066,109.2
2020-01-20T02:04:03,42.805,6.029,0.049,-0.025,0.002,106.0,106.0,101.0,13.4,1505.2,325.7,-0.7,1.8,2470.37,13.3,0.055,117.0
2020-01-20T02:07:03,42.805,6.029,0.059,-0.011,-0.027,106.0,107.0,101.0,13.3,1505.3,328.0,-0.8,1.8,2470.327,13.31,0.06,100.6
2020-01-20T02:10:03,42.805,6.029,0.074,-0.035,-0.027,104.0,107.0,101.0,13.4,1505.3,326.9,-0.7,1.8,2470.358,13.31,0.081,115.3
2020-01-20T02:13:03,42.805,6.029,0.064,-0.027,-0.032,107.0,106.0,101.0,13.4,1505.3,327.7,-0.7,1.8,2470.345,13.32,0.069,112.9
2020-01-20T02:16:03,42.805,6.029,0.06,-0.032,-0.018,104.0,106.0,101.0,13.4,1505.3,326.5,-0.7,1.8,2470.331,13.32,0.067,118.1
2020-01-20T02:19:03,42.805,6.029,0.066,-0.034,0.004,105.0,105.0,101.0,13.4,1505.3,327.1,-0.7,1.8,2470.31,13.32,0.074,117.3
2020-01-20T02:22:03,42.805,6.029,0.04,-0.018,-0.045,105.0,106.0,102.0,13.3,1505.3,326.6,-0.7,1.8,2470.35,13.32,0.043,114.2
2020-01-20T02:25:03,42.805,6.029,0.07,0.003,-0.006,105.0,105.0,102.0,13.3,1505.3,323.3,-0.7,1.8,2470.328,13.32,0.07,87.6
2020-01-20T02:28:03,42.805,6.029,0.051,-0.01,-0.005,106.0,107.0,102.0,13.4,1505.3,324.7,-0.7,1.8,2470.335,13.32,0.051,101.1
2020-01-20T02:31:03,42.805,6.029,0.043,-0.02,-0.015,105.0,107.0,101.0,13.3,1505.3,323.2,-0.7,1.8,2470.321,13.32,0.047,114.9
2020-01-20T02:34:03,42.805,6.029,0.067,-0.014,-0.006,105.0,106.0,102.0,13.4,1505.3,324.2,-0.8,1.8,2470.329,13.32,0.068,101.8
2020-01-20T02:37:03,42.805,6.029,0.063,-0.03,-0.022,105.0,106.0,102.0,13.3,1505.3,324.7,-0.7,1.8,2470.373,13.32,0.069,115.5
2020-01-20T02:43:02,42.805,6.029,0.074,-0.024,-0.027,105.0,107.0,101.0,13.3,1505.2,326.0,-0.7,1.9,2470.406,13.3,0.077,108.0
2020-01-20T02:46:03,42.805,6.029,0.046,-0.028,-0.011,106.0,106.0,102.0,13.3,1505.3,326.0,-0.7,1.8,2470.358,13.31,0.053,121.3
2020-01-20T02:49:03,42.805,6.029,0.048,-0.028,-0.001,106.0,106.0,102.0,13.4,1505.3,326.4,-0.8,1.8,2470.346,13.31,0.055,120.3
2020-01-20T02:52:03,42.805,6.029,0.057,-0.001,-0.017,105.0,106.0,102.0,13.4,1505.3,328.5,-0.7,1.8,2470.353,13.32,0.057,91.0
2020-01-20T02:55:03,42.805,6.029,0.049,-0.016,-0.001,104.0,106.0,102.0,13.4,1505.3,327.0,-0.7,1.9,2470.399,13.32,0.051,108.1
2020-01-20T02:58:03,42.805,6.029,0.048,-0.037,-0.01,104.0,106.0,102.0,13.4,1505.3,323.5,-0.7,1.8,2470.311,13.32,0.06,127.6
2020-01-20T03:04:02,42.805,6.029,0.07,-0.024,-0.024,106.0,107.0,102.0,13.3,1505.2,324.4,-0.8,1.8,2470.377,13.3,0.073,108.9
2020-01-20T03:07:03,42.805,6.029,0.04,-0.031,-0.032,106.0,106.0,101.0,13.3,1505.3,323.0,-0.7,1.8,2470.392,13.31,0.05,127.8
2020-01-20T03:10:03,42.805,6.029,0.053,-0.026,-0.025,105.0,106.0,102.0,13.3,1505.3,328.6,-0.7,1.8,2470.373,13.31,0.059,116.1
2020-01-20T03:13:03,42.805,6.029,0.068,-0.032,-0.07,104.0,106.0,101.0,13.3,1505.3,326.5,-0.7,1.8,2470.393,13.32,0.075,115.2
2020-01-20T03:16:03,42.805,6.029,0.035,-0.036,-0.017,105.0,106.0,101.0,13.4,1505.3,328.4,-0.7,1.8,2470.371,13.32,0.05,135.8
2020-01-20T03:19:03,42.805,6.029,0.058,-0.031,-0.011,105.0,106.0,102.0,13.3,1505.3,326.1,-0.7,1.8,2470.371,13.32,0.065,118.1
2020-01-20T03:22:03,42.805,6.029,0.071,-0.029,-0.033,105.0,105.0,102.0,13.4,1505.3,325.8,-0.7,1.9,2470.369,13.32,0.076,112.2
2020-01-20T03:25:03,42.805,6.029,0.071,-0.002,-0.015,105.0,107.0,102.0,13.4,1505.3,326.7,-0.7,1.8,2470.394,13.32,0.071,91.6
2020-01-20T03:28:03,42.805,6.029,0.065,-0.032,0.022,105.0,105.0,102.0,13.4,1505.3,327.9,-0.7,1.8,2470.333,13.32,0.072,116.2
2020-01-20T03:31:03,42.805,6.029,0.062,-0.006,-0.02,105.0,107.0,102.0,13.4,1505.3,325.1,-0.7,1.8,2470.343,13.32,0.062,95.5
2020-01-20T03:34:03,42.805,6.029,0.069,-0.016,-0.006,105.0,106.0,102.0,13.3,1505.3,326.9,-0.7,1.8,2470.358,13.32,0.07,103.1
2020-01-20T03:37:03,42.805,6.029,0.042,-0.03,0.004,107.0,105.0,101.0,13.4,1505.3,325.9,-0.7,1.8,2470.331,13.32,0.051,125.5
2020-01-20T03:40:03,42.805,6.029,0.049,-0.04,-0.04,107.0,108.0,102.0,13.4,1505.3,326.9,-0.7,1.8,2470.377,13.32,0.063,129.2
2020-01-20T03:43:03,42.805,6.029,0.058,-0.026,-0.017,106.0,107.0,102.0,13.4,1505.3,323.2,-0.7,1.8,2470.332,13.32,0.063,114.1
2020-01-20T03:46:03,42.805,6.029,0.069,-0.034,0.006,105.0,106.0,102.0,13.3,1505.3,325.8,-0.7,1.8,2470.341,13.32,0.076,116.2
2020-01-20T03:49:03,42.805,6.029,0.054,-0.035,-0.002,107.0,107.0,102.0,13.4,1505.3,324.6,-0.7,1.8,2470.365,13.32,0.064,123.0
2020-01-20T03:52:03,42.805,6.029,0.052,-0.053,-0.023,106.0,108.0,101.0,13.4,1505.3,326.1,-0.7,1.8,2470.386,13.32,0.074,135.5
2020-01-20T03:55:03,42.805,6.029,0.054,-0.028,-0.029,106.0,106.0,102.0,13.4,1505.3,325.4,-0.7,1.8,2470.366,13.32,0.06,117.4
2020-01-20T03:58:03,42.805,6.029,0.049,-0.026,-0.021,106.0,108.0,103.0,13.4,1505.3,323.0,-0.7,1.8,2470.324,13.32,0.055,117.9
2020-01-20T04:04:03,42.805,6.029,0.05,-0.024,-0.015,104.0,107.0,103.0,13.3,1505.2,327.9,-0.7,1.8,2470.414,13.3,0.055,115.6
2020-01-20T04:07:03,42.805,6.029,0.064,-0.037,-0.033,106.0,106.0,102.0,13.3,1505.3,327.4,-0.7,1.8,2470.384,13.31,0.073,120.0
2020-01-20T04:10:03,42.805,6.029,0.06,-0.022,-0.017,106.0,106.0,103.0,13.3,1505.3,328.0,-0.7,1.8,2470.348,13.31,0.063,110.1
2020-01-20T04:13:03,42.805,6.029,0.06,-0.064,0.001,105.0,107.0,102.0,13.4,1505.3,325.6,-0.7,1.8,2470.349,13.32,0.087,136.9
2020-01-20T04:16:03,42.805,6.029,0.038,-0.037,-0.008,105.0,106.0,102.0,13.3,1505.3,327.6,-0.7,1.8,2470.358,13.32,0.053,134.2
2020-01-20T04:19:03,42.805,6.029,0.064,-0.026,-0.04,107.0,104.0,102.0,13.4,1505.3,323.6,-0.7,1.9,2470.345,13.32,0.069,112.1
2020-01-20T04:22:03,42.805,6.029,0.03,-0.062,-0.018,106.0,106.0,101.0,13.4,1505.3,325.3,-0.7,1.9,2470.362,13.32,0.068,154.2
2020-01-20T04:25:03,42.805,6.029,0.047,0.006,-0.01,106.0,107.0,102.0,13.4,1505.3,325.4,-0.7,1.8,2470.376,13.32,0.047,82.7
2020-01-20T04:28:03,42.805,6.029,0.032,-0.017,-0.043,106.0,106.0,103.0,13.4,1505.3,327.4,-0.7,1.9,2470.342,13.32,0.036,118.0
2020-01-20T04:31:03,42.805,6.029,0.075,-0.054,-0.021,107.0,107.0,103.0,13.3,1505.3,326.9,-0.7,1.9,2470.354,13.32,0.092,125.8
2020-01-20T04:34:03,42.805,6.029,0.048,-0.034,-0.028,104.0,106.0,102.0,13.4,1505.3,328.1,-0.7,1.8,2470.309,13.32,0.058,125.3
2020-01-20T04:37:03,42.805,6.029,0.053,-0.041,0.02,105.0,106.0,102.0,13.3,1505.3,327.1,-0.7,1.8,2470.379,13.32,0.067,127.7
2020-01-20T04:40:03,42.805,6.029,0.05,-0.021,-0.026,107.0,106.0,102.0,13.3,1505.3,326.7,-0.7,1.8,2470.354,13.32,0.054,112.8
2020-01-20T04:43:02,42.805,6.029,0.054,-0.04,-0.022,106.0,107.0,102.0,13.3,1505.3,324.8,-0.7,1.8,2470.339,13.32,0.067,126.5
2020-01-20T04:46:03,42.805,6.029,0.05,-0.025,-0.031,106.0,106.0,102.0,13.4,1505.3,323.7,-0.6,1.8,2470.35,13.32,0.055,116.6
2020-01-20T04:49:03,42.805,6.029,0.081,-0.053,-0.005,106.0,106.0,102.0,13.4,1505.3,324.3,-0.7,1.8,2470.363,13.32,0.096,123.2
2020-01-20T04:52:03,42.805,6.029,0.067,-0.043,-0.007,106.0,106.0,103.0,13.4,1505.3,324.3,-0.7,1.8,2470.368,13.32,0.079,122.7
2020-01-20T04:55:03,42.805,6.029,0.069,-0.02,0.0,106.0,107.0,103.0,13.3,1505.3,325.7,-0.7,1.8,2470.34,13.32,0.071,106.2
2020-01-20T04:58:03,42.805,6.029,0.075,-0.026,-0.002,105.0,106.0,102.0,13.3,1505.3,324.7,-0.7,1.8,2470.35,13.32,0.079,109.1
2020-01-20T05:04:03,42.805,6.029,0.035,-0.043,-0.027,105.0,105.0,103.0,13.4,1505.2,327.2,-0.7,1.8,2470.397,13.3,0.055,140.9
2020-01-20T05:07:03,42.805,6.029,0.032,-0.029,0.008,106.0,106.0,103.0,13.4,1505.3,327.3,-0.7,1.8,2470.381,13.31,0.043,132.2
2020-01-20T05:10:03,42.805,6.029,0.046,-0.026,-0.02,105.0,107.0,102.0,13.4,1505.3,326.3,-0.7,1.9,2470.378,13.31,0.052,119.5
2020-01-20T05:13:03,42.805,6.029,0.062,-0.043,0.007,106.0,106.0,103.0,13.4,1505.3,327.5,-0.7,1.8,2470.386,13.32,0.075,124.7
2020-01-20T05:16:03,42.805,6.029,0.053,-0.019,-0.004,105.0,106.0,102.0,13.4,1505.3,325.4,-0.7,1.8,2470.367,13.32,0.056,109.7
2020-01-20T05:19:03,42.805,6.029,0.055,-0.017,-0.012,106.0,107.0,103.0,13.4,1505.3,328.4,-0.7,1.8,2470.359,13.32,0.057,107.2
2020-01-20T05:22:03,42.805,6.029,0.051,-0.032,-0.027,107.0,106.0,102.0,13.3,1505.3,326.1,-0.7,1.9,2470.35,13.32,0.06,122.1
2020-01-20T05:25:03,42.805,6.029,0.03,-0.034,-0.057,105.0,105.0,102.0,13.4,1505.3,326.4,-0.7,1.8,2470.384,13.32,0.045,138.6
2020-01-20T05:28:03,42.805,6.029,0.045,-0.012,-0.019,104.0,105.0,101.0,13.3,1505.3,326.8,-0.7,1.8,2470.414,13.32,0.046,104.9
2020-01-20T05:31:03,42.805,6.029,0.023,-0.047,-0.016,105.0,106.0,102.0,13.3,1505.3,327.0,-0.7,1.8,2470.401,13.32,0.052,153.9
2020-01-20T05:34:03,42.805,6.029,0.046,-0.032,0.005,104.0,106.0,102.0,13.3,1505.3,328.6,-0.7,1.9,2470.388,13.32,0.056,124.8
2020-01-20T05:37:03,42.805,6.029,0.046,-0.04,-0.03,105.0,107.0,102.0,13.4,1505.3,325.1,-0.7,1.9,2470.355,13.32,0.06,131.0
2020-01-20T05:40:03,42.805,6.029,0.06,-0.031,-0.038,104.0,107.0,103.0,13.3,1505.3,323.4,-0.7,1.8,2470.364,13.32,0.067,117.3
2020-01-20T05:43:03,42.805,6.029,0.035,-0.049,-0.009,105.0,106.0,102.0,13.3,1505.3,323.5,-0.7,1.8,2470.302,13.32,0.06,144.5
2020-01-20T05:46:03,42.805,6.029,0.033,-0.033,-0.04,105.0,106.0,101.0,13.4,1505.3,324.3,-0.7,1.8,2470.36,13.32,0.046,135.0
2020-01-20T05:49:03,42.805,6.029,0.044,-0.015,-0.014,107.0,105.0,102.0,13.4,1505.3,326.5,-0.7,1.8,2470.332,13.32,0.046,108.8
2020-01-20T05:52:02,42.805,6.029,0.048,-0.007,-0.02,104.0,106.0,102.0,13.4,1505.3,323.1,-0.7,1.9,2470.374,13.32,0.048,98.3
2020-01-20T05:55:03,42.805,6.029,0.053,-0.04,-0.032,105.0,106.0,103.0,13.4,1505.3,325.0,-0.7,1.8,2470.382,13.32,0.066,127.0
2020-01-20T05:58:03,42.805,6.029,0.096,-0.027,0.011,106.0,108.0,102.0,13.3,1505.3,326.9,-0.7,1.8,2470.353,13.32,0.099,105.7
2020-01-20T06:01:03,42.805,6.029,0.06,-0.029,0.0,104.0,105.0,102.0,13.4,1505.3,326.4,-0.7,1.8,2470.374,13.32,0.066,115.8
2020-01-20T06:04:02,42.805,6.029,0.052,-0.033,-0.006,104.0,105.0,101.0,13.4,1505.3,328.3,-0.7,1.8,2470.383,13.32,0.061,122.4
2020-01-20T06:07:03,42.805,6.029,0.042,-0.032,-0.009,104.0,107.0,102.0,13.3,1505.3,325.4,-0.7,1.8,2470.389,13.32,0.052,127.3
2020-01-20T06:10:03,42.805,6.029,0.037,-0.026,-0.007,106.0,106.0,102.0,13.3,1505.3,327.7,-0.7,1.9,2470.351,13.32,0.045,125.1
2020-01-20T06:16:02,42.805,6.029,0.045,-0.036,0.003,104.0,106.0,102.0,13.4,1505.2,327.7,-0.7,1.8,2470.447,13.3,0.057,128.7
2020-01-20T06:19:03,42.805,6.029,0.037,-0.025,0.011,105.0,106.0,103.0,13.4,1505.3,326.8,-0.7,1.9,2470.371,13.31,0.044,124.0
2020-01-20T06:22:03,42.805,6.029,0.051,-0.032,-0.01,104.0,106.0,103.0,13.3,1505.3,324.7,-0.7,1.8,2470.371,13.31,0.06,122.1
2020-01-20T06:25:03,42.805,6.029,0.057,-0.046,-0.036,106.0,105.0,102.0,13.4,1505.3,325.4,-0.7,1.8,2470.39,13.32,0.073,128.9
2020-01-20T06:31:02,42.805,6.029,0.058,-0.014,-0.025,105.0,107.0,102.0,13.3,1505.2,326.8,-0.8,1.8,2470.407,13.3,0.059,103.6
2020-01-20T06:34:02,42.805,6.029,0.045,-0.042,-0.012,105.0,106.0,102.0,13.4,1505.3,328.5,-0.7,1.8,2470.399,13.31,0.061,133.0
2020-01-20T06:37:03,42.805,6.029,0.042,-0.023,-0.029,105.0,106.0,103.0,13.3,1505.3,327.2,-0.7,1.8,2470.412,13.31,0.047,118.7
2020-01-20T06:40:03,42.805,6.029,0.037,-0.038,-0.035,105.0,106.0,102.0,13.4,1505.3,326.3,-0.7,1.9,2470.441,13.32,0.053,135.8
2020-01-20T06:43:03,42.805,6.029,0.047,-0.035,-0.009,105.0,106.0,103.0,13.4,1505.3,325.2,-0.7,1.8,2470.384,13.32,0.058,126.7
2020-01-20T06:46:03,42.805,6.029,0.049,-0.039,0.002,105.0,106.0,102.0,13.4,1505.3,323.7,-0.7,1.8,2470.363,13.32,0.062,128.5
2020-01-20T06:49:03,42.805,6.029,0.044,-0.041,-0.042,105.0,106.0,102.0,13.4,1505.3,324.5,-0.7,1.8,2470.376,13.32,0.06,133.0
2020-01-20T06:52:03,42.805,6.029,0.048,-0.044,-0.026,104.0,107.0,103.0,13.4,1505.3,324.9,-0.7,1.8,2470.368,13.32,0.065,132.5
2020-01-20T06:55:03,42.805,6.029,0.055,-0.036,0.001,104.0,105.0,102.0,13.3,1505.3,324.6,-0.7,1.8,2470.395,13.32,0.065,123.2
2020-01-20T06:58:03,42.805,6.029,0.029,-0.037,-0.047,106.0,106.0,103.0,13.4,1505.3,328.1,-0.7,1.9,2470.389,13.32,0.047,141.9
2020-01-20T07:04:03,42.805,6.029,0.046,-0.005,-0.025,105.0,106.0,102.0,13.3,1505.2,325.0,-0.7,1.8,2470.397,13.3,0.046,96.2
2020-01-20T07:07:03,42.805,6.029,0.045,-0.037,-0.047,105.0,106.0,103.0,13.4,1505.3,327.0,-0.7,1.9,2470.443,13.31,0.058,129.4
2020-01-20T07:10:03,42.805,6.029,0.052,-0.037,0.007,104.0,106.0,103.0,13.4,1505.3,326.0,-0.7,1.8,2470.454,13.31,0.063,125.4
2020-01-20T07:13:03,42.805,6.029,0.058,-0.056,-0.006,106.0,105.0,103.0,13.4,1505.3,328.1,-0.7,1.8,2470.422,13.32,0.08,134.0
2020-01-20T07:16:03,42.805,6.029,0.03,-0.016,-0.026,105.0,107.0,103.0,13.4,1505.3,325.8,-0.7,1.8,2470.404,13.32,0.034,118.1
2020-01-20T07:19:03,42.805,6.029,0.059,-0.021,0.012,103.0,106.0,103.0,13.3,1505.3,326.9,-0.7,1.8,2470.382,13.32,0.062,109.6
2020-01-20T07:22:03,42.805,6.029,0.062,-0.009,-0.007,105.0,107.0,103.0,13.4,1505.3,325.4,-0.7,1.9,2470.377,13.32,0.062,98.3
2020-01-20T07:25:03,42.805,6.029,0.042,-0.045,-0.039,105.0,105.0,102.0,13.4,1505.3,324.1,-0.7,1.8,2470.384,13.32,0.061,137.0
2020-01-20T07:28:03,42.805,6.029,0.05,-0.018,0.005,105.0,106.0,103.0,13.4,1505.3,324.3,-0.7,1.8,2470.372,13.32,0.053,109.8
2020-01-20T07:31:03,42.805,6.029,0.038,-0.035,-0.026,105.0,106.0,102.0,13.4,1505.3,324.9,-0.7,1.8,2470.378,13.32,0.051,132.6
2020-01-20T07:34:03,42.805,6.029,0.036,-0.043,-0.041,105.0,105.0,102.0,13.4,1505.3,325.1,-0.7,1.8,2470.371,13.32,0.056,140.1
2020-01-20T07:37:02,42.805,6.029,0.038,-0.043,-0.006,106.0,105.0,102.0,13.4,1505.3,328.4,-0.7,1.9,2470.402,13.32,0.057,138.5
2020-01-20T07:40:03,42.805,6.029,0.054,-0.032,-0.014,106.0,106.0,102.0,13.4,1505.3,325.1,-0.7,1.8,2470.366,13.32,0.062,120.7
2020-01-20T07:43:03,42.805,6.029,0.032,-0.026,-0.025,104.0,105.0,102.0,13.3,1505.3,327.5,-0.7,1.8,2470.349,13.32,0.041,129.1
2020-01-20T07:46:03,42.805,6.029,0.033,-0.037,-0.009,105.0,105.0,103.0,13.4,1505.3,327.8,-0.7,1.8,2470.326,13.32,0.049,138.3
2020-01-20T07:49:03,42.805,6.029,0.066,-0.042,0.006,106.0,107.0,103.0,13.3,1505.3,325.0,-0.7,1.8,2470.384,13.32,0.078,122.5
2020-01-20T07:52:03,42.805,6.029,0.049,-0.025,-0.026,104.0,107.0,102.0,13.3,1505.3,324.7,-0.7,1.8,2470.365,13.32,0.055,117.0
2020-01-20T07:55:03,42.805,6.029,0.038,-0.052,-0.008,107.0,106.0,102.0,13.3,1505.3,324.7,-0.7,1.8,2470.322,13.32,0.064,143.8
2020-01-20T07:58:03,42.805,6.029,0.026,-0.033,-0.013,105.0,106.0,103.0,13.3,1505.3,326.0,-0.7,1.9,2470.336,13.32,0.042,141.8
2020-01-20T08:04:03,42.805,6.029,0.062,-0.021,0.003,105.0,107.0,102.0,13.3,1505.2,323.6,-0.8,1.8,2470.388,13.3,0.065,108.7
2020-01-20T08:07:03,42.805,6.029,0.028,-0.016,-0.038,106.0,106.0,103.0,13.4,1505.3,326.2,-0.7,1.9,2470.393,13.31,0.032,119.7
2020-01-20T08:10:03,42.805,6.029,0.044,-0.036,-0.01,106.0,106.0,102.0,13.3,1505.3,323.7,-0.7,1.8,2470.343,13.31,0.056,129.3
2020-01-20T08:13:03,42.805,6.029,0.032,-0.034,-0.006,106.0,107.0,101.0,13.4,1505.3,325.8,-0.7,1.9,2470.352,13.32,0.046,136.7
2020-01-20T08:16:03,42.805,6.029,0.042,-0.018,-0.02,106.0,105.0,101.0,13.4,1505.3,327.0,-0.7,1.8,2470.318,13.32,0.045,113.2
2020-01-20T08:19:03,42.805,6.029,0.03,-0.016,-0.025,105.0,106.0,102.0,13.3,1505.3,326.8,-0.7,1.8,2470.319,13.32,0.034,118.1
2020-01-20T08:22:03,42.805,6.029,0.049,-0.038,-0.021,106.0,107.0,102.0,13.4,1505.3,328.6,-0.7,1.8,2470.336,13.32,0.062,127.8
2020-01-20T08:25:03,42.805,6.029,0.045,-0.03,-0.03,106.0,107.0,103.0,13.4,1505.3,323.1,-0.7,1.8,2470.306,13.32,0.054,123.7
2020-01-20T08:28:03,42.805,6.029,0.035,-0.032,-0.05,106.0,107.0,102.0,13.4,1505.3,324.3,-0.7,1.9,2470.37,13.32,0.047,132.4
2020-01-20T08:31:03,42.805,6.029,0.045,-0.041,-0.003,106.0,106.0,102.0,13.4,1505.3,324.8,-0.7,1.8,2470.306,13.32,0.06,132.3
2020-01-20T08:34:03,42.805,6.029,0.037,-0.037,-0.023,105.0,107.0,103.0,13.4,1505.3,326.0,-0.7,1.8,2470.313,13.32,0.052,135.0
2020-01-20T08:37:03,42.805,6.029,0.032,-0.029,-0.001,106.0,106.0,103.0,13.3,1505.3,327.6,-0.7,1.8,2470.345,13.32,0.043,132.2
2020-01-20T08:40:03,42.805,6.029,0.035,-0.04,-0.024,106.0,106.0,102.0,13.3,1505.3,323.6,-0.7,1.8,2470.325,13.32,0.053,138.8
2020-01-20T08:43:03,42.805,6.029,0.041,-0.018,-0.006,106.0,107.0,103.0,13.4,1505.3,326.7,-0.7,1.8,2470.334,13.32,0.044,113.7
2020-01-20T08:46:03,42.805,6.029,0.043,-0.046,-0.014,106.0,107.0,103.0,13.3,1505.3,327.2,-0.7,1.8,2470.339,13.32,0.062,136.9
2020-01-20T08:49:03,42.805,6.029,0.023,-0.022,-0.009,106.0,107.0,102.0,13.4,1505.3,324.5,-0.7,1.8,2470.367,13.32,0.031,133.7
2020-01-20T08:52:03,42.805,6.029,0.055,-0.041,-0.015,106.0,106.0,102.0,13.4,1505.3,325.1,-0.7,1.8,2470.324,13.32,0.068,126.7
2020-01-20T08:55:03,42.805,6.029,0.031,-0.014,0.007,105.0,106.0,102.0,13.4,1505.3,326.4,-0.7,1.8,2470.351,13.32,0.034,114.3
2020-01-20T08:58:03,42.805,6.029,0.037,-0.037,-0.039,105.0,107.0,102.0,13.4,1505.3,323.3,-0.7,1.8,2470.292,13.32,0.052,135.0
2020-01-20T09:04:03,42.805,6.029,0.041,-0.037,-0.04,105.0,106.0,102.0,13.4,1505.2,326.1,-0.8,1.8,2470.384,13.3,0.055,132.1
2020-01-20T09:07:03,42.805,6.029,0.035,-0.014,0.019,105.0,106.0,102.0,13.4,1505.3,323.3,-0.7,1.8,2470.366,13.31,0.037,111.8
2020-01-20T09:10:03,42.805,6.029,0.056,-0.026,-0.031,106.0,106.0,102.0,13.4,1505.3,325.2,-0.7,1.8,2470.377,13.31,0.061,114.9
2020-01-20T09:13:03,42.805,6.029,0.041,-0.045,-0.021,105.0,106.0,102.0,13.4,1505.3,328.4,-0.7,1.8,2470.329,13.32,0.06,137.7
2020-01-20T09:16:03,42.805,6.029,0.03,-0.042,-0.024,106.0,106.0,101.0,13.4,1505.3,323.7,-0.7,1.8,2470.358,13.32,0.051,144.5
2020-01-20T09:19:03,42.805,6.029,0.05,-0.031,-0.012,105.0,108.0,101.0,13.4,1505.3,324.0,-0.7,1.9,2470.34,13.32,0.058,121.8
2020-01-20T09:22:02,42.805,6.029,0.042,-0.04,-0.025,105.0,106.0,102.0,13.3,1505.3,324.6,-0.7,1.8,2470.323,13.32,0.057,133.6
2020-01-20T09:25:03,42.805,6.029,0.031,-0.023,0.011,105.0,107.0,102.0,13.3,1505.3,325.1,-0.7,1.8,2470.354,13.32,0.038,126.6
2020-01-20T09:28:03,42.805,6.029,0.048,-0.039,-0.01,104.0,107.0,102.0,13.4,1505.3,327.4,-0.7,1.8,2470.35,13.32,0.061,129.1
2020-01-20T09:31:03,42.805,6.029,0.047,0.0,-0.003,104.0,106.0,104.0,13.4,1505.3,323.3,-0.7,1.8,2470.346,13.32,0.047,90.0
2020-01-20T09:34:03,42.805,6.029,0.022,-0.03,-0.049,103.0,106.0,102.0,13.4,1505.3,323.5,-0.7,1.8,2470.338,13.32,0.037,143.7
2020-01-20T09:37:03,42.805,6.029,0.056,-0.007,-0.029,106.0,106.0,100.0,13.4,1505.3,323.8,-0.7,1.8,2470.315,13.32,0.056,97.1
2020-01-20T09:40:03,42.805,6.029,0.042,-0.011,-0.021,106.0,106.0,102.0,13.3,1505.3,326.8,-0.7,1.8,2470.306,13.32,0.043,104.7
2020-01-20T09:43:03,42.805,6.029,0.034,-0.021,-0.027,106.0,106.0,101.0,13.4,1505.3,324.8,-0.7,1.8,2470.322,13.32,0.039,121.7
2020-01-20T09:46:03,42.805,6.029,0.054,-0.03,-0.028,104.0,107.0,102.0,13.3,1505.3,324.8,-0.7,1.9,2470.333,13.32,0.061,119.1
2020-01-20T09:49:03,42.805,6.029,0.044,-0.013,-0.007,106.0,107.0,102.0,13.3,1505.3,327.8,-0.7,1.8,2470.293,13.32,0.045,106.5
2020-01-20T09:52:03,42.805,6.029,0.054,-0.007,-0.012,105.0,107.0,103.0,13.4,1505.3,325.2,-0.7,1.8,2470.331,13.32,0.054,97.4
2020-01-20T09:55:03,42.805,6.029,0.042,-0.018,-0.05,106.0,107.0,101.0,13.4,1505.3,324.2,-0.7,1.8,2470.351,13.32,0.045,113.2
2020-01-20T09:58:03,42.805,6.029,0.051,-0.018,-0.035,105.0,106.0,102.0,13.4,1505.3,326.2,-0.7,1.8,2470.292,13.32,0.054,109.4
2020-01-20T10:04:03,42.805,6.029,0.053,-0.018,-0.026,106.0,106.0,102.0,13.3,1505.2,327.0,-0.7,1.8,2470.353,13.3,0.055,108.8